Year,Month,Day,Hour,Minute,Value (Times are PST for temperature in C)
2020,12,07,00,00,7.30
2020,12,07,00,01,7.20
2020,12,07,00,02,7.20
2020,12,07,00,03,7.20
2020,12,07,00,04,7.20
2020,12,07,00,05,7.20
2020,12,07,00,06,7.20
2020,12,07,00,07,7.20
2020,12,07,00,08,7.20
2020,12,07,00,09,7.20
2020,12,07,00,10,7.20
2020,12,07,00,11,7.20
2020,12,07,00,12,7.20
2020,12,07,00,13,7.20
2020,12,07,00,14,7.20
2020,12,07,00,15,7.20
2020,12,07,00,16,7.20
2020,12,07,00,17,7.20
2020,12,07,00,18,7.20
2020,12,07,00,19,7.20
2020,12,07,00,20,7.20
2020,12,07,00,21,7.20
2020,12,07,00,22,7.20
2020,12,07,00,23,7.20
2020,12,07,00,24,7.20
2020,12,07,00,25,7.20
2020,12,07,00,26,7.20
2020,12,07,00,27,7.20
2020,12,07,00,28,7.20
2020,12,07,00,29,7.20
2020,12,07,00,30,7.20
2020,12,07,00,31,7.10
2020,12,07,00,32,7.10
2020,12,07,00,33,7.10
2020,12,07,00,34,7.10
2020,12,07,00,35,7.10
2020,12,07,00,36,7.10
2020,12,07,00,37,7.10
2020,12,07,00,38,7.10
2020,12,07,00,39,7.10
2020,12,07,00,40,7.10
2020,12,07,00,41,7.20
2020,12,07,00,42,7.20
2020,12,07,00,43,7.10
2020,12,07,00,44,7.20
2020,12,07,00,45,7.20
2020,12,07,00,46,7.20
2020,12,07,00,47,7.20
2020,12,07,00,48,7.20
2020,12,07,00,49,7.20
2020,12,07,00,50,7.20
2020,12,07,00,51,7.20
2020,12,07,00,52,7.20
2020,12,07,00,53,7.20
2020,12,07,00,54,7.20
2020,12,07,00,55,7.20
2020,12,07,00,56,7.20
2020,12,07,00,57,7.20
2020,12,07,00,58,7.20
2020,12,07,00,59,7.20
2020,12,07,01,00,7.20
2020,12,07,01,01,7.20
2020,12,07,01,02,7.20
2020,12,07,01,03,7.20
2020,12,07,01,04,7.20
2020,12,07,01,05,7.20
2020,12,07,01,06,7.20
2020,12,07,01,07,7.20
2020,12,07,01,08,7.20
2020,12,07,01,09,7.20
2020,12,07,01,10,7.20
2020,12,07,01,11,7.20
2020,12,07,01,12,7.20
2020,12,07,01,13,7.20
2020,12,07,01,14,7.20
2020,12,07,01,15,7.20
2020,12,07,01,16,7.20
2020,12,07,01,17,7.20
2020,12,07,01,18,7.20
2020,12,07,01,19,7.20
2020,12,07,01,20,7.20
2020,12,07,01,21,7.20
2020,12,07,01,22,7.20
2020,12,07,01,23,7.20
2020,12,07,01,24,7.20
2020,12,07,01,25,7.20
2020,12,07,01,26,7.20
2020,12,07,01,27,7.20
2020,12,07,01,28,7.20
2020,12,07,01,29,7.20
2020,12,07,01,30,7.20
2020,12,07,01,31,7.20
2020,12,07,01,32,7.20
2020,12,07,01,33,7.20
2020,12,07,01,34,7.20
2020,12,07,01,35,7.20
2020,12,07,01,36,7.20
2020,12,07,01,37,7.20
2020,12,07,01,38,7.20
2020,12,07,01,39,7.20
2020,12,07,01,40,7.20
2020,12,07,01,41,7.20
2020,12,07,01,42,7.20
2020,12,07,01,43,7.20
2020,12,07,01,44,7.20
2020,12,07,01,45,7.20
2020,12,07,01,46,7.20
2020,12,07,01,47,7.20
2020,12,07,01,48,7.20
2020,12,07,01,49,7.20
2020,12,07,01,50,7.20
2020,12,07,01,51,7.20
2020,12,07,01,52,7.20
2020,12,07,01,53,7.20
2020,12,07,01,54,7.20
2020,12,07,01,55,7.20
2020,12,07,01,56,7.20
2020,12,07,01,57,7.20
2020,12,07,01,58,7.20
2020,12,07,01,59,7.20
2020,12,07,02,00,7.20
2020,12,07,02,01,7.20
2020,12,07,02,02,7.20
2020,12,07,02,03,7.20
2020,12,07,02,04,7.20
2020,12,07,02,05,7.20
2020,12,07,02,06,7.20
2020,12,07,02,07,7.20
2020,12,07,02,08,7.20
2020,12,07,02,09,7.20
2020,12,07,02,10,7.20
2020,12,07,02,11,7.20
2020,12,07,02,12,7.20
2020,12,07,02,13,7.20
2020,12,07,02,14,7.20
2020,12,07,02,15,7.20
2020,12,07,02,16,7.20
2020,12,07,02,17,7.20
2020,12,07,02,18,7.20
2020,12,07,02,19,7.20
2020,12,07,02,20,7.20
2020,12,07,02,21,7.20
2020,12,07,02,22,7.20
2020,12,07,02,23,7.20
2020,12,07,02,24,7.20
2020,12,07,02,25,7.20
2020,12,07,02,26,7.30
2020,12,07,02,27,7.30
2020,12,07,02,28,7.30
2020,12,07,02,29,7.40
2020,12,07,02,30,7.40
2020,12,07,02,31,7.40
2020,12,07,02,32,7.40
2020,12,07,02,33,7.50
2020,12,07,02,34,7.50
2020,12,07,02,35,7.50
2020,12,07,02,36,7.50
2020,12,07,02,37,7.50
2020,12,07,02,38,7.40
2020,12,07,02,39,7.40
2020,12,07,02,40,7.40
2020,12,07,02,41,7.40
2020,12,07,02,42,7.40
2020,12,07,02,43,7.40
2020,12,07,02,44,7.40
2020,12,07,02,45,7.40
2020,12,07,02,46,7.40
2020,12,07,02,47,7.40
2020,12,07,02,48,7.40
2020,12,07,02,49,7.40
2020,12,07,02,50,7.40
2020,12,07,02,51,7.40
2020,12,07,02,52,7.40
2020,12,07,02,53,7.50
2020,12,07,02,54,7.50
2020,12,07,02,55,7.50
2020,12,07,02,56,7.50
2020,12,07,02,57,7.50
2020,12,07,02,58,7.60
2020,12,07,02,59,7.60
2020,12,07,03,00,7.60
2020,12,07,03,01,7.50
2020,12,07,03,02,7.60
2020,12,07,03,03,7.60
2020,12,07,03,04,7.60
2020,12,07,03,05,7.60
2020,12,07,03,06,7.60
2020,12,07,03,07,7.60
2020,12,07,03,08,7.60
2020,12,07,03,09,7.60
2020,12,07,03,10,7.60
2020,12,07,03,11,7.60
2020,12,07,03,12,7.60
2020,12,07,03,13,7.60
2020,12,07,03,14,7.60
2020,12,07,03,15,7.60
2020,12,07,03,16,7.60
2020,12,07,03,17,7.60
2020,12,07,03,18,7.60
2020,12,07,03,19,7.60
2020,12,07,03,20,7.60
2020,12,07,03,21,7.60
2020,12,07,03,22,7.60
2020,12,07,03,23,7.60
2020,12,07,03,24,7.60
2020,12,07,03,25,7.70
2020,12,07,03,26,7.70
2020,12,07,03,27,7.70
2020,12,07,03,28,7.70
2020,12,07,03,29,7.70
2020,12,07,03,30,7.70
2020,12,07,03,31,7.70
2020,12,07,03,32,7.70
2020,12,07,03,33,7.70
2020,12,07,03,34,7.70
2020,12,07,03,35,7.70
2020,12,07,03,36,7.70
2020,12,07,03,37,7.70
2020,12,07,03,38,7.70
2020,12,07,03,39,7.70
2020,12,07,03,40,7.70
2020,12,07,03,41,7.70
2020,12,07,03,42,7.70
2020,12,07,03,43,7.70
2020,12,07,03,44,7.70
2020,12,07,03,45,7.70
2020,12,07,03,46,7.60
2020,12,07,03,47,7.60
2020,12,07,03,48,7.60
2020,12,07,03,49,7.60
2020,12,07,03,50,7.60
2020,12,07,03,51,7.60
2020,12,07,03,52,7.60
2020,12,07,03,53,7.60
2020,12,07,03,54,7.60
2020,12,07,03,55,7.60
2020,12,07,03,56,7.50
2020,12,07,03,57,7.50
2020,12,07,03,58,7.50
2020,12,07,03,59,7.50
2020,12,07,04,00,7.50
2020,12,07,04,01,7.50
2020,12,07,04,02,7.60
2020,12,07,04,03,7.60
2020,12,07,04,04,7.60
2020,12,07,04,05,7.60
2020,12,07,04,06,7.60
2020,12,07,04,07,7.60
2020,12,07,04,08,7.60
2020,12,07,04,09,7.60
2020,12,07,04,10,7.60
2020,12,07,04,11,7.60
2020,12,07,04,12,7.60
2020,12,07,04,13,7.60
2020,12,07,04,14,7.60
2020,12,07,04,15,7.60
2020,12,07,04,16,7.60
2020,12,07,04,17,7.60
2020,12,07,04,18,7.60
2020,12,07,04,19,7.60
2020,12,07,04,20,7.60
2020,12,07,04,21,7.60
2020,12,07,04,22,7.60
2020,12,07,04,23,7.60
2020,12,07,04,24,7.60
2020,12,07,04,25,7.60
2020,12,07,04,26,7.60
2020,12,07,04,27,7.60
2020,12,07,04,28,7.60
2020,12,07,04,29,7.60
2020,12,07,04,30,7.60
2020,12,07,04,31,7.60
2020,12,07,04,32,7.60
2020,12,07,04,33,7.60
2020,12,07,04,34,7.60
2020,12,07,04,35,7.60
2020,12,07,04,36,7.60
2020,12,07,04,37,7.60
2020,12,07,04,38,7.60
2020,12,07,04,39,7.60
2020,12,07,04,40,7.60
2020,12,07,04,41,7.60
2020,12,07,04,42,7.60
2020,12,07,04,43,7.60
2020,12,07,04,44,7.50
2020,12,07,04,45,7.50
2020,12,07,04,46,7.50
2020,12,07,04,47,7.50
2020,12,07,04,48,7.50
2020,12,07,04,49,7.50
2020,12,07,04,50,7.50
2020,12,07,04,51,7.50
2020,12,07,04,52,7.50
2020,12,07,04,53,7.50
2020,12,07,04,54,7.50
2020,12,07,04,55,7.50
2020,12,07,04,56,7.50
2020,12,07,04,57,7.50
2020,12,07,04,58,7.50
2020,12,07,04,59,7.50
2020,12,07,05,00,7.50
2020,12,07,05,01,7.50
2020,12,07,05,02,7.50
2020,12,07,05,03,7.50
2020,12,07,05,04,7.50
2020,12,07,05,05,7.50
2020,12,07,05,06,7.50
2020,12,07,05,07,7.50
2020,12,07,05,08,7.50
2020,12,07,05,09,7.50
2020,12,07,05,10,7.50
2020,12,07,05,11,7.50
2020,12,07,05,12,7.50
2020,12,07,05,13,7.50
2020,12,07,05,14,7.50
2020,12,07,05,15,7.50
2020,12,07,05,16,7.50
2020,12,07,05,17,7.40
2020,12,07,05,18,7.40
2020,12,07,05,19,7.40
2020,12,07,05,20,7.40
2020,12,07,05,21,7.40
2020,12,07,05,22,7.40
2020,12,07,05,23,7.40
2020,12,07,05,24,7.40
2020,12,07,05,25,7.40
2020,12,07,05,26,7.40
2020,12,07,05,27,7.40
2020,12,07,05,28,7.40
2020,12,07,05,29,7.40
2020,12,07,05,30,7.40
2020,12,07,05,31,7.40
2020,12,07,05,32,7.40
2020,12,07,05,33,7.40
2020,12,07,05,34,7.40
2020,12,07,05,35,7.40
2020,12,07,05,36,7.40
2020,12,07,05,37,7.40
2020,12,07,05,38,7.40
2020,12,07,05,39,7.40
2020,12,07,05,40,7.40
2020,12,07,05,41,7.40
2020,12,07,05,42,7.40
2020,12,07,05,43,7.40
2020,12,07,05,44,7.40
2020,12,07,05,45,7.40
2020,12,07,05,46,7.40
2020,12,07,05,47,7.40
2020,12,07,05,48,7.40
2020,12,07,05,49,7.40
2020,12,07,05,50,7.40
2020,12,07,05,51,7.40
2020,12,07,05,52,7.40
2020,12,07,05,53,7.40
2020,12,07,05,54,7.40
2020,12,07,05,55,7.40
2020,12,07,05,56,7.40
2020,12,07,05,57,7.40
2020,12,07,05,58,7.40
2020,12,07,05,59,7.40
2020,12,07,06,00,7.40
2020,12,07,06,01,7.40
2020,12,07,06,02,7.40
2020,12,07,06,03,7.30
2020,12,07,06,04,7.40
2020,12,07,06,05,7.30
2020,12,07,06,06,7.40
2020,12,07,06,07,7.40
2020,12,07,06,08,7.40
2020,12,07,06,09,7.40
2020,12,07,06,10,7.40
2020,12,07,06,11,7.40
2020,12,07,06,12,7.30
2020,12,07,06,13,7.40
2020,12,07,06,14,7.30
2020,12,07,06,15,7.40
2020,12,07,06,16,7.30
2020,12,07,06,17,7.30
2020,12,07,06,18,7.30
2020,12,07,06,19,7.40
2020,12,07,06,20,7.40
2020,12,07,06,21,7.40
2020,12,07,06,22,7.40
2020,12,07,06,23,7.40
2020,12,07,06,24,7.40
2020,12,07,06,25,7.40
2020,12,07,06,26,7.40
2020,12,07,06,27,7.40
2020,12,07,06,28,7.40
2020,12,07,06,29,7.40
2020,12,07,06,30,7.40
2020,12,07,06,31,7.50
2020,12,07,06,32,7.50
2020,12,07,06,33,7.50
2020,12,07,06,34,7.50
2020,12,07,06,35,7.50
2020,12,07,06,36,7.50
2020,12,07,06,37,7.50
2020,12,07,06,38,7.50
2020,12,07,06,39,7.50
2020,12,07,06,40,7.60
2020,12,07,06,41,7.60
2020,12,07,06,42,7.60
2020,12,07,06,43,7.60
2020,12,07,06,44,7.60
2020,12,07,06,45,7.60
2020,12,07,06,46,7.60
2020,12,07,06,47,7.60
2020,12,07,06,48,7.60
2020,12,07,06,49,7.60
2020,12,07,06,50,7.60
2020,12,07,06,51,7.60
2020,12,07,06,52,7.60
2020,12,07,06,53,7.60
2020,12,07,06,54,7.60
2020,12,07,06,55,7.70
2020,12,07,06,56,7.70
2020,12,07,06,57,7.70
2020,12,07,06,58,7.70
2020,12,07,06,59,7.70
2020,12,07,07,00,7.70
2020,12,07,07,01,7.70
2020,12,07,07,02,7.70
2020,12,07,07,03,7.70
2020,12,07,07,04,7.70
2020,12,07,07,05,7.70
2020,12,07,07,06,7.70
2020,12,07,07,07,7.70
2020,12,07,07,08,7.70
2020,12,07,07,09,7.70
2020,12,07,07,10,7.70
2020,12,07,07,11,7.70
2020,12,07,07,12,7.70
2020,12,07,07,13,7.70
2020,12,07,07,14,7.70
2020,12,07,07,15,7.70
2020,12,07,07,16,7.70
2020,12,07,07,17,7.70
2020,12,07,07,18,7.70
2020,12,07,07,19,7.70
2020,12,07,07,20,7.70
2020,12,07,07,21,7.70
2020,12,07,07,22,7.70
2020,12,07,07,23,7.70
2020,12,07,07,24,7.70
2020,12,07,07,25,7.70
2020,12,07,07,26,7.60
2020,12,07,07,27,7.70
2020,12,07,07,28,7.60
2020,12,07,07,29,7.70
2020,12,07,07,30,7.60
2020,12,07,07,31,7.70
2020,12,07,07,32,7.70
2020,12,07,07,33,7.60
2020,12,07,07,34,7.70
2020,12,07,07,35,7.70
2020,12,07,07,36,7.70
2020,12,07,07,37,7.70
2020,12,07,07,38,7.70
2020,12,07,07,39,7.70
2020,12,07,07,40,7.70
2020,12,07,07,41,7.70
2020,12,07,07,42,7.70
2020,12,07,07,43,7.70
2020,12,07,07,44,7.70
2020,12,07,07,45,7.70
2020,12,07,07,46,7.70
2020,12,07,07,47,7.70
2020,12,07,07,48,7.70
2020,12,07,07,49,7.70
2020,12,07,07,50,7.70
2020,12,07,07,51,7.70
2020,12,07,07,52,7.70
2020,12,07,07,53,7.70
2020,12,07,07,54,7.70
2020,12,07,07,55,7.70
2020,12,07,07,56,7.70
2020,12,07,07,57,7.70
2020,12,07,07,58,7.70
2020,12,07,07,59,7.70
2020,12,07,08,00,7.70
2020,12,07,08,01,7.70
2020,12,07,08,02,7.70
2020,12,07,08,03,7.70
2020,12,07,08,04,7.70
2020,12,07,08,05,7.70
2020,12,07,08,06,7.70
2020,12,07,08,07,7.70
2020,12,07,08,08,7.70
2020,12,07,08,09,7.70
2020,12,07,08,10,7.70
2020,12,07,08,11,7.70
2020,12,07,08,12,7.70
2020,12,07,08,13,7.70
2020,12,07,08,14,7.70
2020,12,07,08,15,7.70
2020,12,07,08,16,7.70
2020,12,07,08,17,7.70
2020,12,07,08,18,7.70
2020,12,07,08,19,7.70
2020,12,07,08,20,7.70
2020,12,07,08,21,7.70
2020,12,07,08,22,7.70
2020,12,07,08,23,7.70
2020,12,07,08,24,7.70
2020,12,07,08,25,7.80
2020,12,07,08,26,7.80
2020,12,07,08,27,7.70
2020,12,07,08,28,7.80
2020,12,07,08,29,7.80
2020,12,07,08,30,7.80
2020,12,07,08,31,7.80
2020,12,07,08,32,7.80
2020,12,07,08,33,7.80
2020,12,07,08,34,7.80
2020,12,07,08,35,7.80
2020,12,07,08,36,7.80
2020,12,07,08,37,7.80
2020,12,07,08,38,7.80
2020,12,07,08,39,7.80
2020,12,07,08,40,7.80
2020,12,07,08,41,7.80
2020,12,07,08,42,7.80
2020,12,07,08,43,7.80
2020,12,07,08,44,7.80
2020,12,07,08,45,7.80
2020,12,07,08,46,7.80
2020,12,07,08,47,7.80
2020,12,07,08,48,7.80
2020,12,07,08,49,7.80
2020,12,07,11,55,7.80
2020,12,07,11,56,7.80
2020,12,07,11,57,7.80
2020,12,07,11,58,7.80
2020,12,07,11,59,7.80
2020,12,07,12,00,7.80
2020,12,07,12,01,7.80
2020,12,07,12,02,7.80
2020,12,07,12,03,7.80
2020,12,07,12,04,7.80
2020,12,07,12,05,7.80
2020,12,07,12,06,7.80
2020,12,07,12,07,7.80
2020,12,07,12,08,7.80
2020,12,07,12,09,7.80
2020,12,07,12,10,7.80
2020,12,07,12,11,7.80
2020,12,07,12,12,7.80
2020,12,07,12,13,7.80
2020,12,07,12,14,7.80
2020,12,07,12,15,7.80
2020,12,07,12,16,7.80
2020,12,07,12,17,7.80
2020,12,07,12,18,7.80
2020,12,07,12,19,7.70
2020,12,07,12,20,7.70
2020,12,07,12,21,7.70
2020,12,07,12,22,7.70
2020,12,07,12,23,7.70
2020,12,07,12,24,7.70
2020,12,07,12,25,7.70
2020,12,07,12,26,7.70
2020,12,07,12,27,7.70
2020,12,07,12,28,7.70
2020,12,07,12,29,7.70
2020,12,07,12,30,7.70
2020,12,07,12,31,7.70
2020,12,07,12,32,7.70
2020,12,07,12,33,7.70
2020,12,07,12,34,7.70
2020,12,07,12,35,7.70
2020,12,07,12,36,7.70
2020,12,07,12,37,7.70
2020,12,07,12,38,7.70
2020,12,07,12,39,7.70
2020,12,07,12,40,7.70
2020,12,07,12,41,7.70
2020,12,07,12,42,7.70
2020,12,07,12,43,7.70
2020,12,07,12,44,7.70
2020,12,07,12,45,7.70
2020,12,07,12,46,7.70
2020,12,07,12,47,7.70
2020,12,07,12,48,7.70
2020,12,07,12,49,7.70
2020,12,07,12,50,7.70
2020,12,07,12,51,7.60
2020,12,07,12,52,7.60
2020,12,07,12,53,7.60
2020,12,07,12,54,7.60
2020,12,07,12,55,7.60
2020,12,07,12,56,7.70
2020,12,07,12,57,7.70
2020,12,07,12,58,7.70
2020,12,07,12,59,7.70
2020,12,07,13,00,7.70
2020,12,07,13,01,7.70
2020,12,07,13,02,7.70
2020,12,07,13,03,7.70
2020,12,07,13,04,7.70
2020,12,07,13,05,7.70
2020,12,07,13,06,7.70
2020,12,07,13,07,7.70
2020,12,07,13,08,7.70
2020,12,07,13,09,7.70
2020,12,07,13,10,7.70
2020,12,07,13,11,7.70
2020,12,07,13,12,7.70
2020,12,07,13,13,7.70
2020,12,07,13,14,7.70
2020,12,07,13,15,7.70
2020,12,07,13,16,7.70
2020,12,07,13,17,7.70
2020,12,07,13,18,7.70
2020,12,07,13,19,7.70
2020,12,07,13,20,7.80
2020,12,07,13,21,7.80
2020,12,07,13,22,7.80
2020,12,07,13,23,7.80
2020,12,07,13,24,7.80
2020,12,07,13,25,7.80
2020,12,07,13,26,7.80
2020,12,07,13,27,7.80
2020,12,07,13,28,7.80
2020,12,07,13,29,7.80
2020,12,07,13,30,7.80
2020,12,07,13,31,7.80
2020,12,07,13,32,7.80
2020,12,07,13,33,7.80
2020,12,07,13,34,7.80
2020,12,07,13,35,7.80
2020,12,07,13,36,7.80
2020,12,07,13,37,7.80
2020,12,07,13,38,7.80
2020,12,07,13,39,7.80
2020,12,07,13,40,7.80
2020,12,07,13,41,7.80
2020,12,07,13,42,7.80
2020,12,07,13,43,7.80
2020,12,07,13,44,7.80
2020,12,07,13,45,7.80
2020,12,07,13,46,7.80
2020,12,07,13,47,7.80
2020,12,07,13,48,7.80
2020,12,07,13,49,7.80
2020,12,07,13,50,7.80
2020,12,07,13,51,7.80
2020,12,07,13,52,7.80
2020,12,07,13,53,7.80
2020,12,07,13,54,7.80
2020,12,07,13,55,7.80
2020,12,07,13,56,7.80
2020,12,07,13,57,7.80
2020,12,07,13,58,7.80
2020,12,07,13,59,7.80
2020,12,07,14,00,7.90
2020,12,07,14,01,7.90
2020,12,07,14,02,7.90
2020,12,07,14,03,7.90
2020,12,07,14,04,7.90
2020,12,07,14,05,7.90
2020,12,07,14,06,7.90
2020,12,07,14,07,7.90
2020,12,07,14,08,7.90
2020,12,07,14,09,7.90
2020,12,07,14,10,7.90
2020,12,07,14,11,7.90
2020,12,07,14,12,7.90
2020,12,07,14,13,7.90
2020,12,07,14,14,7.90
2020,12,07,14,15,7.90
2020,12,07,14,16,7.90
2020,12,07,14,17,7.90
2020,12,07,14,18,7.90
2020,12,07,14,19,7.90
2020,12,07,14,20,7.90
2020,12,07,14,21,7.90
2020,12,07,14,22,7.90
2020,12,07,14,23,8.00
2020,12,07,14,24,8.00
2020,12,07,14,25,7.90
2020,12,07,14,26,7.90
2020,12,07,14,27,7.90
2020,12,07,14,28,7.90
2020,12,07,14,29,7.90
2020,12,07,14,30,7.90
2020,12,07,14,31,7.90
2020,12,07,14,32,8.00
2020,12,07,14,33,8.00
2020,12,07,14,34,8.00
2020,12,07,14,35,8.00
2020,12,07,14,36,7.90
2020,12,07,14,37,7.90
2020,12,07,14,38,7.90
2020,12,07,14,39,7.90
2020,12,07,14,40,7.90
2020,12,07,14,41,7.90
2020,12,07,14,42,7.90
2020,12,07,14,43,7.90
2020,12,07,14,44,7.90
2020,12,07,14,45,7.90
2020,12,07,14,46,7.90
2020,12,07,14,47,8.00
2020,12,07,14,48,7.90
2020,12,07,14,49,7.90
2020,12,07,14,50,7.90
2020,12,07,14,51,7.90
2020,12,07,14,52,8.00
2020,12,07,14,53,7.90
2020,12,07,14,54,7.90
2020,12,07,14,55,7.90
2020,12,07,14,56,7.90
2020,12,07,14,57,7.90
2020,12,07,14,58,7.90
2020,12,07,14,59,7.90
2020,12,07,15,00,7.90
2020,12,07,15,01,7.90
2020,12,07,15,02,7.90
2020,12,07,15,03,7.90
2020,12,07,15,04,7.90
2020,12,07,15,05,7.90
2020,12,07,15,06,7.90
2020,12,07,15,07,7.90
2020,12,07,15,08,7.90
2020,12,07,15,09,7.90
2020,12,07,15,10,7.90
2020,12,07,15,11,7.90
2020,12,07,15,12,7.90
2020,12,07,15,13,7.90
2020,12,07,15,14,7.90
2020,12,07,15,15,7.90
2020,12,07,15,16,7.90
2020,12,07,15,17,7.90
2020,12,07,15,18,7.90
2020,12,07,15,19,7.90
2020,12,07,15,20,7.90
2020,12,07,15,21,7.90
2020,12,07,15,22,7.90
2020,12,07,15,23,7.90
2020,12,07,15,24,7.90
2020,12,07,15,25,7.90
2020,12,07,15,26,7.90
2020,12,07,15,27,7.90
2020,12,07,15,28,7.90
2020,12,07,15,29,7.90
2020,12,07,15,30,7.90
2020,12,07,15,31,7.90
2020,12,07,15,32,7.90
2020,12,07,15,33,7.90
2020,12,07,15,34,8.00
2020,12,07,15,35,8.00
2020,12,07,15,36,8.00
2020,12,07,15,37,8.00
2020,12,07,15,38,8.00
2020,12,07,15,39,8.00
2020,12,07,15,40,8.00
2020,12,07,15,41,8.00
2020,12,07,15,42,8.00
2020,12,07,15,43,8.00
2020,12,07,15,44,8.00
2020,12,07,15,45,7.90
2020,12,07,15,46,7.90
2020,12,07,15,47,7.90
2020,12,07,15,48,7.90
2020,12,07,15,49,7.90
2020,12,07,15,50,7.90
2020,12,07,15,51,7.90
2020,12,07,15,52,7.90
2020,12,07,15,53,7.90
2020,12,07,15,54,7.90
2020,12,07,15,55,7.90
2020,12,07,15,56,7.90
2020,12,07,15,57,7.90
2020,12,07,15,58,7.90
2020,12,07,15,59,7.90
2020,12,07,16,00,7.90
2020,12,07,16,01,7.90
2020,12,07,16,02,7.90
2020,12,07,16,03,7.90
2020,12,07,16,04,7.90
2020,12,07,16,05,7.90
2020,12,07,16,06,7.90
2020,12,07,16,07,7.90
2020,12,07,16,08,7.90
2020,12,07,16,09,7.90
2020,12,07,16,10,7.90
2020,12,07,16,11,7.90
2020,12,07,16,12,7.90
2020,12,07,16,13,7.80
2020,12,07,16,14,7.80
2020,12,07,16,15,7.80
2020,12,07,16,16,7.80
2020,12,07,16,17,7.80
2020,12,07,16,18,7.80
2020,12,07,16,19,7.80
2020,12,07,16,20,7.80
2020,12,07,16,21,7.80
2020,12,07,16,22,7.80
2020,12,07,16,23,7.80
2020,12,07,16,24,7.80
2020,12,07,16,25,7.80
2020,12,07,16,26,7.80
2020,12,07,16,27,7.80
2020,12,07,16,28,7.80
2020,12,07,16,29,7.80
2020,12,07,16,30,7.80
2020,12,07,16,31,7.80
2020,12,07,16,32,7.80
2020,12,07,16,33,7.80
2020,12,07,16,34,7.80
2020,12,07,16,35,7.70
2020,12,07,16,36,7.70
2020,12,07,16,37,7.70
2020,12,07,16,38,7.70
2020,12,07,16,39,7.70
2020,12,07,16,40,7.70
2020,12,07,16,41,7.70
2020,12,07,16,42,7.70
2020,12,07,16,43,7.70
2020,12,07,16,44,7.70
2020,12,07,16,45,7.70
2020,12,07,16,46,7.70
2020,12,07,16,47,7.70
2020,12,07,16,48,7.70
2020,12,07,16,49,7.70
2020,12,07,16,50,7.70
2020,12,07,16,51,7.70
2020,12,07,16,52,7.70
2020,12,07,16,53,7.70
2020,12,07,16,54,7.70
2020,12,07,16,55,7.70
2020,12,07,16,56,7.70
2020,12,07,16,57,7.70
2020,12,07,16,58,7.70
2020,12,07,16,59,7.70
2020,12,07,17,00,7.70
2020,12,07,17,01,7.70
2020,12,07,17,02,7.70
2020,12,07,17,03,7.70
2020,12,07,17,04,7.60
2020,12,07,17,05,7.70
2020,12,07,17,06,7.60
2020,12,07,17,07,7.60
2020,12,07,17,08,7.60
2020,12,07,17,09,7.60
2020,12,07,17,10,7.60
2020,12,07,17,11,7.60
2020,12,07,17,12,7.60
2020,12,07,17,13,7.60
2020,12,07,17,14,7.60
2020,12,07,17,15,7.60
2020,12,07,17,16,7.60
2020,12,07,17,17,7.60
2020,12,07,17,18,7.60
2020,12,07,17,19,7.60
2020,12,07,17,20,7.60
2020,12,07,17,21,7.60
2020,12,07,17,22,7.60
2020,12,07,17,23,7.60
2020,12,07,17,24,7.60
2020,12,07,17,25,7.60
2020,12,07,17,26,7.60
2020,12,07,17,27,7.60
2020,12,07,17,28,7.60
2020,12,07,17,29,7.60
2020,12,07,17,30,7.60
2020,12,07,17,31,7.60
2020,12,07,17,32,7.60
2020,12,07,17,33,7.60
2020,12,07,17,34,7.60
2020,12,07,17,35,7.60
2020,12,07,17,36,7.60
2020,12,07,17,37,7.60
2020,12,07,17,38,7.60
2020,12,07,17,39,7.60
2020,12,07,17,40,7.60
2020,12,07,17,41,7.60
2020,12,07,17,42,7.60
2020,12,07,17,43,7.60
2020,12,07,17,44,7.60
2020,12,07,17,45,7.60
2020,12,07,17,46,7.60
2020,12,07,17,47,7.60
2020,12,07,17,48,7.60
2020,12,07,17,49,7.60
2020,12,07,17,50,7.60
2020,12,07,17,51,7.60
2020,12,07,17,52,7.60
2020,12,07,17,53,7.60
2020,12,07,17,54,7.60
2020,12,07,17,55,7.60
2020,12,07,17,56,7.60
2020,12,07,17,57,7.60
2020,12,07,17,58,7.60
2020,12,07,17,59,7.60
2020,12,07,18,00,7.60
2020,12,07,18,01,7.60
2020,12,07,18,02,7.60
2020,12,07,18,03,7.60
2020,12,07,18,04,7.60
2020,12,07,18,05,7.60
2020,12,07,18,06,7.60
2020,12,07,18,07,7.60
2020,12,07,18,08,7.60
2020,12,07,18,09,7.60
2020,12,07,18,10,7.60
2020,12,07,18,11,7.60
2020,12,07,18,12,7.60
2020,12,07,18,13,7.60
2020,12,07,18,14,7.50
2020,12,07,18,15,7.50
2020,12,07,18,16,7.50
2020,12,07,18,17,7.50
2020,12,07,18,18,7.50
2020,12,07,18,19,7.50
2020,12,07,18,20,7.50
2020,12,07,18,21,7.50
2020,12,07,18,22,7.50
2020,12,07,18,23,7.50
2020,12,07,18,24,7.50
2020,12,07,18,25,7.50
2020,12,07,18,26,7.50
2020,12,07,18,27,7.50
2020,12,07,18,28,7.50
2020,12,07,18,29,7.50
2020,12,07,18,30,7.50
2020,12,07,18,31,7.50
2020,12,07,18,32,7.50
2020,12,07,18,33,7.50
2020,12,07,18,34,7.50
2020,12,07,18,35,7.50
2020,12,07,18,36,7.50
2020,12,07,18,37,7.50
2020,12,07,18,38,7.50
2020,12,07,18,39,7.50
2020,12,07,18,40,7.50
2020,12,07,18,41,7.50
2020,12,07,18,42,7.50
2020,12,07,18,43,7.50
2020,12,07,18,44,7.50
2020,12,07,18,45,7.50
2020,12,07,18,46,7.50
2020,12,07,18,47,7.50
2020,12,07,18,48,7.50
2020,12,07,18,49,7.50
2020,12,07,18,50,7.50
2020,12,07,18,51,7.50
2020,12,07,18,52,7.50
2020,12,07,18,53,7.50
2020,12,07,18,54,7.50
2020,12,07,18,55,7.50
2020,12,07,18,56,7.50
2020,12,07,18,57,7.50
2020,12,07,18,58,7.50
2020,12,07,18,59,7.50
2020,12,07,19,00,7.50
2020,12,07,19,01,7.50
2020,12,07,19,02,7.50
2020,12,07,19,03,7.50
2020,12,07,19,04,7.50
2020,12,07,19,05,7.50
2020,12,07,19,06,7.50
2020,12,07,19,07,7.50
2020,12,07,19,08,7.40
2020,12,07,19,09,7.40
2020,12,07,19,10,7.40
2020,12,07,19,11,7.40
2020,12,07,19,12,7.40
2020,12,07,19,13,7.40
2020,12,07,19,14,7.40
2020,12,07,19,15,7.40
2020,12,07,19,16,7.40
2020,12,07,19,17,7.40
2020,12,07,19,18,7.50
2020,12,07,19,19,7.50
2020,12,07,19,20,7.50
2020,12,07,19,21,7.50
2020,12,07,19,22,7.50
2020,12,07,19,23,7.50
2020,12,07,19,24,7.50
2020,12,07,19,25,7.50
2020,12,07,19,26,7.50
2020,12,07,19,27,7.50
2020,12,07,19,28,7.50
2020,12,07,19,29,7.50
2020,12,07,19,30,7.50
2020,12,07,19,31,7.50
2020,12,07,19,32,7.50
2020,12,07,19,33,7.50
2020,12,07,19,34,7.50
2020,12,07,19,35,7.50
2020,12,07,19,36,7.50
2020,12,07,19,37,7.50
2020,12,07,19,38,7.50
2020,12,07,19,39,7.50
2020,12,07,19,40,7.50
2020,12,07,19,41,7.50
2020,12,07,19,42,7.50
2020,12,07,19,43,7.50
2020,12,07,19,44,7.50
2020,12,07,19,45,7.50
2020,12,07,19,46,7.50
2020,12,07,19,47,7.50
2020,12,07,19,48,7.50
2020,12,07,19,49,7.50
2020,12,07,19,50,7.50
2020,12,07,19,51,7.50
2020,12,07,19,52,7.50
2020,12,07,19,53,7.50
2020,12,07,19,54,7.50
2020,12,07,19,55,7.50
2020,12,07,19,56,7.50
2020,12,07,19,57,7.50
2020,12,07,19,58,7.50
2020,12,07,19,59,7.50
2020,12,07,20,00,7.50
2020,12,07,20,01,7.50
2020,12,07,20,02,7.50
2020,12,07,20,03,7.50
2020,12,07,20,04,7.50
2020,12,07,20,05,7.50
2020,12,07,20,06,7.50
2020,12,07,20,07,7.50
2020,12,07,20,08,7.50
2020,12,07,20,09,7.50
2020,12,07,20,10,7.50
2020,12,07,20,11,7.50
2020,12,07,20,12,7.50
2020,12,07,20,13,7.50
2020,12,07,20,14,7.50
2020,12,07,20,15,7.50
2020,12,07,20,16,7.50
2020,12,07,20,17,7.50
2020,12,07,20,18,7.50
2020,12,07,20,19,7.50
2020,12,07,20,20,7.50
2020,12,07,20,21,7.50
2020,12,07,20,22,7.50
2020,12,07,20,23,7.50
2020,12,07,20,24,7.50
2020,12,07,20,25,7.50
2020,12,07,20,26,7.50
2020,12,07,20,27,7.50
2020,12,07,20,28,7.50
2020,12,07,20,29,7.50
2020,12,07,20,30,7.50
2020,12,07,20,31,7.50
2020,12,07,20,32,7.50
2020,12,07,20,33,7.50
2020,12,07,20,34,7.50
2020,12,07,20,35,7.50
2020,12,07,20,36,7.50
2020,12,07,20,37,7.50
2020,12,07,20,38,7.50
2020,12,07,20,39,7.50
2020,12,07,20,40,7.50
2020,12,07,20,41,7.50
2020,12,07,20,42,7.50
2020,12,07,20,43,7.50
2020,12,07,20,44,7.50
2020,12,07,20,45,7.50
2020,12,07,20,46,7.50
2020,12,07,20,47,7.50
2020,12,07,20,48,7.50
2020,12,07,20,49,7.50
2020,12,07,20,50,7.50
2020,12,07,20,51,7.50
2020,12,07,20,52,7.50
2020,12,07,20,53,7.60
2020,12,07,20,54,7.60
2020,12,07,20,55,7.60
2020,12,07,20,56,7.60
2020,12,07,20,57,7.60
2020,12,07,20,58,7.60
2020,12,07,20,59,7.60
2020,12,07,21,00,7.60
2020,12,07,21,01,7.50
2020,12,07,21,02,7.50
2020,12,07,21,03,7.50
2020,12,07,21,04,7.50
2020,12,07,21,05,7.50
2020,12,07,21,06,7.50
2020,12,07,21,07,7.50
2020,12,07,21,08,7.50
2020,12,07,21,09,7.50
2020,12,07,21,10,7.50
2020,12,07,21,11,7.50